Regional Weather Roundup
Issued by NWS Goodland, KS

Home | Current Version | Previous Version | Graphics & Text | Print | Product List | Glossary On
Versions: 1 2 3 4 5 6 7 8 9 10 11 12 13 14 15 16 17 18 19 20 21 22 23 24 25 26 27 28 29 30 31 32 33 34 35 36 37 38 39 40 41 42 43 44 45 46 47 48 49 50
000
ASUS43 KGLD 251959
RWRGLD

GOODLAND FORECAST AREA HOURLY WEATHER ROUNDUP
NATIONAL WEATHER SERVICE GOODLAND KS
100 PM MST THU DEC 25 2014

...OFFICIAL OBSERVATIONS...

CITY           SKY/WX    TMP DP  RH WIND       PRES   REMARKS
GOODLAND KS    SUNNY     46  24  42 N10       29.45R
HILL CITY KS   SUNNY     53  25  33 W8        29.43F
IMPERIAL NEB   SUNNY     42  28  57 NE21      29.46R
MCCOOK NEB     SUNNY     41  23  48 NE12      29.45S
AKRON CO       MOSUNNY   36  29  75 N15       29.48R
BURLINGTON CO  SUNNY     41  26  55 N10       29.43R
LIMON CO       SUNNY     42  25  50 N21       29.43S
$$

...UNOFFICIAL OBSERVATIONS...

CITY           SKY/WX    TMP DP  RH WIND       PRES   REMARKS
COLBY KS       SUNNY     46  30  53 NW5       29.45R
GOVE KS          N/A     61  32  33 MISG        N/A
NORTON KS      SUNNY     48  21  34 SW7       29.44R
SHARON SPRINGS   N/A     61  24  24 SW29G39     N/A
TRIBUNE KS     SUNNY     64  32  29 SW29G36   29.43S
KIT CARSON CO    N/A     55  24  30 MISG        N/A
YUMA CO          N/A     39  29  67 N17         N/A
$$


USA.gov is the U.S. government's official web portal to all federal, state and local government web resources and services.